Weather History for Junction, TX

Change the Weather History Date:

Wednesday, January 23, 2013

  Actual Average Record
Temperature  
Mean Temperature 57 °F -  
Max Temperature 75 °F 60 °F 84 °F (2009)
Min Temperature 39 °F 34 °F 21 °F (2014)
Degree Days  
Heating Degree Days 8    
Growing Degree Days 7 (Base 50)    
Moisture  
Dew Point 47 °F    
Average Humidity 69    
Maximum Humidity 93    
Minimum Humidity 38    
Precipitation  
Precipitation 0.00 in - - ()
Sea Level Pressure  
Sea Level Pressure 30.18 in    
Wind  
Wind Speed 4 mph (SW)    
Max Wind Speed 16 mph    
Max Gust Speed 21 mph    
Visibility 7 miles    
Events      
Averages and records for this station are not official NWS values.
T = Trace of Precipitation, MM = Missing Value Source: NWS Daily Summary

Daily Weather History Graph

Daily Weather History Graph

Search for Another Location

Airport:

Trip Planner

Search our weather history database for the weather conditions in past years. The results will help you decide how hot, cold, wet, or windy it might be!

Date:

Astronomy

Jan. 23, 2013 Rise Set
Actual Time 7:34 AM CST 6:07 PM CST
Civil Twilight 7:08 AM CST 6:33 PM CST
Nautical Twilight 6:39 AM CST 7:02 PM CST
Astronomical Twilight 6:11 AM CST 7:31 PM CST
Moon 3:22 PM CST (1/23) 4:44 AM CST (1/23)
Length of Visible Light 11h 24m
Length of Day
10h 33m
Waxing Gibbous, 89% of the Moon is Illuminated
Jan 23
Waxing Gibbous
Jan 26
Full
Feb 3
Last Quarter
Feb 10
New
Feb 17
First Quarter

Hourly Weather History & Observations

Time (CST) Temp. Windchill Dew Point Humidity Pressure Visibility Wind Dir Wind Speed Gust Speed Precip Events Conditions
12:51 AM 46.0 °F - 42.1 °F 86% 30.17 in 7.0 mi Calm Calm - N/A   Clear
1:51 AM 44.1 °F - 41.0 °F 89% 30.17 in 6.0 mi Calm Calm - N/A   Clear
2:51 AM 46.0 °F 44.8 °F 41.0 °F 83% 30.17 in 7.0 mi West 3.5 mph - N/A   Clear
3:51 AM 52.0 °F - 45.0 °F 77% 30.17 in 8.0 mi West 4.6 mph - N/A   Clear
4:51 AM 45.0 °F 43.5 °F 42.1 °F 90% 30.17 in 7.0 mi West 3.5 mph - N/A   Clear
5:51 AM 43.0 °F 40.3 °F 41.0 °F 93% 30.18 in 6.0 mi West 4.6 mph - N/A   Clear
6:51 AM 39.9 °F 37.8 °F 37.9 °F 93% 30.20 in 6.0 mi West 3.5 mph - N/A   Clear
7:51 AM 39.0 °F - 37.0 °F 93% 30.23 in 5.0 mi Calm Calm - N/A   Clear
8:51 AM 45.0 °F - 39.9 °F 82% 30.24 in 4.0 mi Calm Calm - N/A   Haze
9:34 AM 51.8 °F - 44.6 °F 76% 30.30 in 6.0 mi Calm Calm - N/A   Haze
9:51 AM 55.0 °F - 45.0 °F 69% 30.25 in 7.0 mi Calm Calm - N/A   Scattered Clouds
10:51 AM 64.0 °F - 53.1 °F 67% 30.24 in 7.0 mi SSW 8.1 mph - N/A   Clear
11:51 AM 70.0 °F - 53.1 °F 55% 30.22 in 7.0 mi SSW 16.1 mph 20.7 mph N/A   Clear
12:51 PM 72.0 °F - 53.1 °F 51% 30.19 in 8.0 mi SSW 12.7 mph - N/A   Clear
1:51 PM 73.9 °F - 53.1 °F 48% 30.15 in 7.0 mi SW 9.2 mph - N/A   Clear
2:51 PM 75.9 °F - 52.0 °F 43% 30.13 in 8.0 mi SSW 12.7 mph 17.3 mph N/A   Clear
3:51 PM 75.9 °F - 52.0 °F 43% 30.12 in 8.0 mi SSW 12.7 mph 18.4 mph N/A   Clear
4:51 PM 75.0 °F - 51.1 °F 43% 30.13 in 8.0 mi SSW 10.4 mph - N/A   Clear
5:51 PM 72.0 °F - 52.0 °F 49% 30.13 in 8.0 mi South 8.1 mph - N/A   Clear
6:00 PM - - - N/A% - - North - - N/A   Unknown
6:51 PM 68.0 °F - 52.0 °F 56% 30.14 in 9.0 mi SSW 3.5 mph - N/A   Clear
7:51 PM 64.9 °F - 51.1 °F 61% 30.17 in 8.0 mi Calm Calm - N/A   Clear
8:51 PM 62.1 °F - 50.0 °F 65% 30.17 in 9.0 mi Calm Calm - N/A   Clear
9:51 PM 57.9 °F - 48.9 °F 72% 30.16 in 8.0 mi Calm Calm - N/A   Clear
10:51 PM 59.0 °F - 51.1 °F 75% 30.17 in 8.0 mi Calm Calm - N/A   Clear
11:51 PM 52.0 °F - 46.9 °F 83% 30.16 in 7.0 mi East 3.5 mph - N/A   Clear